Time,TemperatureF,DewpointF,PressureIn,WindDirection,WindDirectionDegrees,WindSpeedMPH,WindSpeedGustMPH,Humidity,HourlyPrecipIn,Conditions,Clouds,dailyrainin,SolarRadiationWatts/m^2,SoftwareType,DateUTC
2013-02-25 00:01:00,14.0,5.0,-100.00,NE,40,3.0,10.0,66,0.00,,,0.18,0.000000,,2013-02-25 07:01:00,
2013-02-25 00:11:00,14.0,5.0,-100.00,NE,40,3.0,10.0,66,0.00,,,0.18,0.000000,,2013-02-25 07:11:00,
2013-02-25 00:42:00,13.0,6.0,-100.00,East,82,1.0,7.0,74,0.00,,,0.18,0.000000,,2013-02-25 07:42:00,
2013-02-25 00:52:00,13.0,6.0,-100.00,East,82,1.0,7.0,74,0.00,,,0.18,0.000000,,2013-02-25 07:52:00,
2013-02-25 01:01:00,13.0,6.0,-100.00,East,82,1.0,7.0,74,0.00,,,0.18,0.000000,,2013-02-25 08:01:00,
2013-02-25 01:11:00,13.0,6.0,-100.00,East,82,1.0,7.0,74,0.00,,,0.18,0.000000,,2013-02-25 08:11:00,
2013-02-25 01:32:00,11.0,5.0,-100.00,North,359,6.0,8.0,76,0.00,,,-99.99,0.000000,,2013-02-25 08:32:00,
2013-02-25 01:42:00,11.0,5.0,-100.00,North,359,6.0,8.0,76,0.00,,,-99.99,0.000000,,2013-02-25 08:42:00,
2013-02-25 01:52:00,11.0,5.0,-100.00,North,359,6.0,8.0,76,0.00,,,-99.99,0.000000,,2013-02-25 08:52:00,
2013-02-25 02:01:00,11.0,5.0,-100.00,North,359,6.0,8.0,76,0.00,,,-99.99,0.000000,,2013-02-25 09:01:00,
2013-02-25 02:12:00,11.0,5.0,-100.00,North,359,6.0,8.0,76,0.00,,,-99.99,0.000000,,2013-02-25 09:12:00,
2013-02-25 02:32:00,10.0,4.0,-100.00,North,4,4.0,6.0,76,0.00,,,0.18,0.000000,,2013-02-25 09:32:00,
2013-02-25 02:42:00,10.0,4.0,-100.00,North,4,4.0,6.0,76,0.00,,,0.18,0.000000,,2013-02-25 09:42:00,
2013-02-25 02:52:00,10.0,4.0,-100.00,North,4,4.0,6.0,76,0.00,,,0.18,0.000000,,2013-02-25 09:52:00,
2013-02-25 03:32:00,8.0,3.0,-100.00,North,9,2.0,3.0,80,-99.99,,,0.18,0.000000,,2013-02-25 10:32:00,
2013-02-25 03:42:00,8.0,3.0,-100.00,North,9,2.0,3.0,80,-99.99,,,0.18,0.000000,,2013-02-25 10:42:00,
2013-02-25 03:52:00,8.0,3.0,-100.00,North,9,2.0,3.0,80,-99.99,,,0.18,0.000000,,2013-02-25 10:52:00,
2013-02-25 04:01:00,8.0,3.0,-100.00,North,9,2.0,3.0,80,-99.99,,,0.18,0.000000,,2013-02-25 11:01:00,
2013-02-25 04:32:00,8.0,3.0,-100.00,ESE,119,0.0,4.0,79,0.00,,,0.18,0.000000,,2013-02-25 11:32:00,
2013-02-25 05:32:00,5.0,0.0,-100.00,North,358,4.0,6.0,81,0.00,,,0.18,0.000000,,2013-02-25 12:32:00,
2013-02-25 05:42:00,5.0,0.0,-100.00,North,358,4.0,6.0,81,0.00,,,0.18,0.000000,,2013-02-25 12:42:00,
2013-02-25 05:55:00,5.0,0.0,-100.00,North,358,4.0,6.0,81,0.00,,,0.18,0.000000,,2013-02-25 12:55:00,
2013-02-25 06:02:00,5.0,0.0,-100.00,North,358,4.0,6.0,81,0.00,,,0.18,0.000000,,2013-02-25 13:02:00,
2013-02-25 06:12:00,5.0,0.0,-100.00,North,358,4.0,6.0,81,0.00,,,0.18,0.000000,,2013-02-25 13:12:00,
2013-02-25 06:13:00,6.0,0.0,-100.00,NNW,336,2.0,6.0,77,0.00,,,0.18,0.000000,,2013-02-25 13:13:00,
2013-02-25 06:32:00,6.0,0.0,-100.00,NNW,336,2.0,6.0,77,0.00,,,0.18,0.000000,,2013-02-25 13:32:00,
2013-02-25 06:42:00,6.0,0.0,-100.00,NNW,336,2.0,6.0,77,0.00,,,0.18,0.000000,,2013-02-25 13:42:00,
2013-02-25 06:52:00,6.0,0.0,-100.00,NNW,336,2.0,6.0,77,0.00,,,0.18,0.000000,,2013-02-25 13:52:00,
2013-02-25 07:03:00,6.0,0.0,-100.00,NNW,336,2.0,6.0,77,0.00,,,0.18,0.000000,,2013-02-25 14:03:00,
2013-02-25 07:32:00,5.0,1.0,-100.00,SE,133,3.0,5.0,83,0.00,,,0.18,8.000000,,2013-02-25 14:32:00,
2013-02-25 07:42:00,5.0,1.0,-100.00,SE,133,3.0,5.0,83,0.00,,,0.18,8.000000,,2013-02-25 14:42:00,
2013-02-25 07:52:00,5.0,1.0,-100.00,SE,133,3.0,5.0,83,0.00,,,0.18,8.000000,,2013-02-25 14:52:00,
2013-02-25 08:02:00,5.0,1.0,-100.00,SE,133,3.0,5.0,83,0.00,,,0.18,8.000000,,2013-02-25 15:02:00,
2013-02-25 08:11:00,5.0,1.0,-100.00,SE,133,3.0,5.0,83,0.00,,,0.18,8.000000,,2013-02-25 15:11:00,
2013-02-25 08:32:00,10.0,4.0,-100.00,SE,144,2.0,5.0,76,0.00,,,0.18,94.000000,,2013-02-25 15:32:00,
2013-02-25 09:32:00,19.0,7.0,-100.00,SSE,166,1.0,5.0,59,-99.99,,,0.18,300.000000,,2013-02-25 16:32:00,
2013-02-25 10:32:00,27.0,9.0,-100.00,South,184,2.0,5.0,45,0.00,,,0.18,619.000000,,2013-02-25 17:32:00,
2013-02-25 11:33:00,29.0,9.0,-100.00,ENE,78,2.0,8.0,43,-99.99,,,0.18,784.000000,,2013-02-25 18:33:00,
2013-02-25 12:42:00,33.0,10.0,-100.00,SW,233,2.0,9.0,38,-99.99,,,0.17,870.000000,,2013-02-25 19:42:00,
2013-02-25 12:52:00,33.0,10.0,-100.00,SW,233,2.0,9.0,38,-99.99,,,0.17,870.000000,,2013-02-25 19:52:00,
2013-02-25 13:32:00,36.0,12.0,-100.00,South,186,2.0,8.0,36,-99.99,,,0.03,879.000000,,2013-02-25 20:32:00,
2013-02-25 14:32:00,36.0,11.0,-100.00,SSW,192,3.0,10.0,35,0.00,,,0.01,813.000000,,2013-02-25 21:32:00,
2013-02-25 15:11:00,36.0,11.0,-100.00,SSW,192,3.0,10.0,35,0.00,,,0.01,813.000000,,2013-02-25 22:11:00,
2013-02-25 15:32:00,37.0,10.0,-100.00,SSW,192,4.0,9.0,32,0.00,,,0.01,678.000000,,2013-02-25 22:32:00,
2013-02-25 15:42:00,37.0,10.0,-100.00,SSW,192,4.0,9.0,32,0.00,,,0.01,678.000000,,2013-02-25 22:42:00,
2013-02-25 15:52:00,37.0,10.0,-100.00,SSW,192,4.0,9.0,32,0.00,,,0.01,678.000000,,2013-02-25 22:52:00,
2013-02-25 16:01:00,37.0,10.0,-100.00,SSW,192,4.0,9.0,32,0.00,,,0.01,678.000000,,2013-02-25 23:01:00,
2013-02-25 16:32:00,35.0,9.0,-100.00,SW,229,5.0,12.0,34,0.00,,,0.01,487.000000,,2013-02-25 23:32:00,
2013-02-25 16:42:00,35.0,9.0,-100.00,SW,229,5.0,12.0,34,0.00,,,0.01,487.000000,,2013-02-25 23:42:00,
2013-02-25 16:52:00,35.0,9.0,-100.00,SW,229,5.0,12.0,34,0.00,,,0.01,487.000000,,2013-02-25 23:52:00,
2013-02-25 17:12:00,35.0,9.0,-100.00,SW,229,5.0,12.0,34,0.00,,,0.01,487.000000,,2013-02-26 00:12:00,
2013-02-25 17:32:00,31.0,5.0,-100.00,SW,221,5.0,12.0,32,0.00,,,0.01,262.000000,,2013-02-26 00:32:00,
2013-02-25 17:42:00,31.0,5.0,-100.00,SW,221,5.0,12.0,32,0.00,,,0.01,262.000000,,2013-02-26 00:42:00,
2013-02-25 17:52:00,31.0,5.0,-100.00,SW,221,5.0,12.0,32,0.00,,,0.01,262.000000,,2013-02-26 00:52:00,
2013-02-25 18:02:00,31.0,5.0,-100.00,SW,221,5.0,12.0,32,0.00,,,0.01,262.000000,,2013-02-26 01:02:00,
2013-02-25 18:11:00,31.0,5.0,-100.00,SW,221,5.0,12.0,32,0.00,,,0.01,262.000000,,2013-02-26 01:11:00,
2013-02-25 18:32:00,24.0,6.0,-100.00,WSW,237,3.0,10.0,46,-99.99,,,0.01,38.000000,,2013-02-26 01:32:00,
2013-02-25 18:42:00,24.0,6.0,-100.00,WSW,237,3.0,10.0,46,-99.99,,,0.01,38.000000,,2013-02-26 01:42:00,
2013-02-25 18:52:00,24.0,6.0,-100.00,WSW,237,3.0,10.0,46,-99.99,,,0.01,38.000000,,2013-02-26 01:52:00,
2013-02-25 19:01:00,24.0,6.0,-100.00,WSW,237,3.0,10.0,46,-99.99,,,0.01,38.000000,,2013-02-26 02:01:00,
2013-02-25 19:11:00,24.0,6.0,-100.00,WSW,237,3.0,10.0,46,-99.99,,,0.01,38.000000,,2013-02-26 02:11:00,
2013-02-25 19:32:00,22.0,9.0,-100.00,SSW,202,4.0,7.0,56,0.00,,,0.01,0.000000,,2013-02-26 02:32:00,
2013-02-25 19:42:00,22.0,9.0,-100.00,SSW,202,4.0,7.0,56,0.00,,,0.01,0.000000,,2013-02-26 02:42:00,
2013-02-25 19:52:00,22.0,9.0,-100.00,SSW,202,4.0,7.0,56,0.00,,,0.01,0.000000,,2013-02-26 02:52:00,
2013-02-25 20:02:00,22.0,9.0,-100.00,SSW,202,4.0,7.0,56,0.00,,,0.01,0.000000,,2013-02-26 03:02:00,
2013-02-25 20:11:00,22.0,9.0,-100.00,SSW,202,4.0,7.0,56,0.00,,,0.01,0.000000,,2013-02-26 03:11:00,
2013-02-25 20:32:00,20.0,7.0,-100.00,SSE,158,3.0,4.0,56,0.00,,,0.01,0.000000,,2013-02-26 03:32:00,
2013-02-25 20:42:00,20.0,7.0,-100.00,SSE,158,3.0,4.0,56,0.00,,,0.01,0.000000,,2013-02-26 03:42:00,
2013-02-25 20:52:00,20.0,7.0,-100.00,SSE,158,3.0,4.0,56,0.00,,,0.01,0.000000,,2013-02-26 03:52:00,
2013-02-25 21:01:00,20.0,7.0,-100.00,SSE,158,3.0,4.0,56,0.00,,,0.01,0.000000,,2013-02-26 04:01:00,
2013-02-25 21:11:00,20.0,7.0,-100.00,SSE,158,3.0,4.0,56,0.00,,,0.01,0.000000,,2013-02-26 04:11:00,
2013-02-25 21:42:00,20.0,7.0,-100.00,SSE,147,3.0,6.0,56,-99.99,,,0.01,0.000000,,2013-02-26 04:42:00,
2013-02-25 21:52:00,20.0,7.0,-100.00,SSE,147,3.0,6.0,56,-99.99,,,0.01,0.000000,,2013-02-26 04:52:00,
2013-02-25 22:01:00,20.0,7.0,-100.00,SSE,147,3.0,6.0,56,-99.99,,,0.01,0.000000,,2013-02-26 05:01:00,
2013-02-25 22:32:00,18.0,8.0,-100.00,West,263,3.0,5.0,63,-99.99,,,0.01,0.000000,,2013-02-26 05:32:00,
2013-02-25 22:43:00,18.0,8.0,-100.00,West,263,3.0,5.0,63,-99.99,,,0.01,0.000000,,2013-02-26 05:43:00,
2013-02-25 22:52:00,18.0,8.0,-100.00,West,263,3.0,5.0,63,-99.99,,,0.01,0.000000,,2013-02-26 05:52:00,
2013-02-25 23:32:00,18.0,8.0,-100.00,SSW,205,2.0,3.0,63,0.00,,,0.01,0.000000,,2013-02-26 06:32:00,
2013-02-25 23:42:00,18.0,8.0,-100.00,SSW,205,2.0,3.0,63,0.00,,,0.01,0.000000,,2013-02-26 06:42:00,
2013-02-25 23:52:00,18.0,8.0,-100.00,SSW,205,2.0,3.0,63,0.00,,,0.01,0.000000,,2013-02-26 06:52:00,